Wind_Speed
14 13 10 10 8 7 5 4 6 6 5 5 4 3 4 5 3 2 1 3 4 3 3 8 7 5 4 3 4 3 4 2 2 3 3 4 3 4 3 3 5 6 7 4 4 3 8 2 2 4 4 4 4 4
13 11 11 7 9 9 9 6 5 4 3 1 0 1 2 3 3 4 2 6 7 6 4 11 18 23 24 22 0 4 4 2 3 3 3 3 3 3 3 3 1 3 5 4 8 6 4 1 1 5 3 5 5 4
14 13 10 7 12 12 9 7 5 3 2 2 3 3 4 4 4 4 5 6 7 3 5 7 10 19 27 33 27 5 3 6 4 4 1 2 5 2 4 4 4 4 1 4 0 5 5 7 5 3 3 4 8 6
11 10 9 8 12 12 10 7 5 4 3 2 2 3 4 5 5 6 7 8 7 4 4 5 11 12 18 18 30 31 29 14 4 3 5 4 5 4 4 7 7 4 6 5 8 9 11 3 3 2 11 5 7 7
11 10 11 11 14 12 10 7 5 3 1 1 2 4 6 6 8 9 12 18 20 7 3 6 16 36 38 35 26 26 25 13 7 6 5 6 3 5 7 5 13 7 15 11 14 7 5 11 4 4 7 5 6 5
10 10 10 14 15 13 9 7 5 3 1 3 5 6 8 8 9 9 3 5 1 17 3 4 3 17 21 17 27 22 18 8 7 5 4 6 5 3 5 8 8 16 17 20 21 20 22 19 14 4 6 6 3 4
11 11 12 17 15 12 9 6 4 1 2 5 7 10 11 12 11 5 5 1 6 6 2 6 5 4 5 1 3 3 10 4 6 6 7 11 9 8 10 21 13 18 16 16 20 22 18 14 16 7 7 5 6 6
13 14 18 17 14 10 7 4 1 3 5 7 10 13 16 17 17 15 24 26 22 5 3 3 4 5 5 3 2 3 3 3 3 4 4 8 6 9 10 19 29 24 19 19 20 16 16 13 9 11 8 4 5 7
16 20 18 15 12 8 5 2 2 4 6 9 13 19 19 2 3 2 3 3 8 11 3 3 3 4 2 2 2 2 3 4 4 7 5 6 7 7 12 17 21 19 16 23 18 18 21 21 19 15 9 8 8 10
21 18 16 13 10 8 4 1 2 5 8 11 8 3 3 2 2 13 4 1 3 3 4 3 1 5 2 1 2 1 3 4 3 5 4 6 9 18 20 21 20 14 9 10 12 16 16 12 14 13 12 10 9 11
18 16 14 11 9 6 3 1 3 5 4 2 3 1 3 5 8 1 1 3 2 3 3 3 6 8 3 6 2 2 3 3 3 5 6 3 4 2 10 10 9 8 11 13 17 20 16 13 11 12 11 9 8 10
17 14 12 10 8 5 2 2 3 3 2 2 6 14 7 1 2 2 3 3 5 2 2 2 3 5 3 3 4 4 4 3 6 3 2 3 2 7 11 14 15 12 11 14 12 19 21 15 10 9 8 8 13 17
17 15 11 9 6 3 1 2 3 2 3 2 2 2 1 2 1 4 3 2 2 2 2 5 7 3 2 4 4 3 6 6 1 3 3 1 7 11 13 14 16 16 14 13 16 18 19 8 14 11 7 11 13 12
17 14 11 8 4 1 1 1 1 2 0 2 2 4 4 3 4 3 3 2 2 2 6 7 4 3 3 6 4 5 4 1 3 3 2 4 12 14 13 12 12 15 13 11 8 4 6 8 6 7 9 12 16 13
15 11 7 4 3 3 5 3 4 1 3 2 2 4 5 3 3 3 2 1 3 2 2 3 4 4 3 4 4 2 3 3 3 3 3 8 13 12 12 12 11 10 9 8 8 8 10 10 11 14 17 19 19 21
11 6 4 6 8 7 3 4 4 6 4 2 4 3 2 2 4 2 1 3 2 1 2 2 4 4 5 3 3 4 3 3 3 3 5 8 10 11 11 10 10 9 9 9 13 15 17 16 15 18 23 21 21 23
9 4 11 10 5 5 6 4 5 4 5 4 4 2 2 2 4 3 2 2 1 2 2 3 4 4 4 3 3 3 2 3 4 5 5 8 10 11 11 10 11 14 13 17 20 23 22 23 26 26 17 22 27 26
6 11 8 4 6 4 5 4 3 3 6 3 1 3 1 2 2 3 2 1 2 2 2 2 4 3 3 4 2 2 1 1 3 3 5 8 9 13 15 11 17 19 19 21 24 26 27 26 21 17 22 23 25 24
6 6 5 7 5 4 4 1 2 3 5 2 2 1 1 2 1 5 4 7 9 6 3 2 2 2 2 2 4 2 2 2 2 2 5 12 15 15 16 18 21 23 24 24 24 22 25 28 24 23 22 22 20 19
8 8 7 6 6 4 3 2 0 2 2 2 1 1 1 2 2 2 4 4 3 2 3 2 2 2 3 5 5 4 2 2 1 3 5 7 15 15 18 16 15 17 20 23 25 25 22 24 25 22 22 21 19 18
7 6 6 6 3 2 3 1 2 1 2 1 2 1 2 2 2 2 3 4 3 3 2 2 3 4 9 8 10 8 10 9 6 4 3 4 11 14 16 18 17 19 18 17 16 18 21 18 17 19 21 22 21 20
5 7 4 5 3 2 3 2 1 2 0 2 2 1 2 2 2 2 3 4 2 2 3 3 4 4 5 6 9 12 11 13 14 14 15 11 6 8 11 15 15 15 16 16 15 15 16 17 19 21 22 19 19 19
7 5 3 2 4 4 3 4 2 4 1 3 2 3 2 2 2 3 2 2 2 3 8 4 6 8 7 10 13 19 19 14 13 12 13 13 13 14 15 19 18 14 13 16 18 18 17 16 17 18 17 16 17 16
5 4 4 2 3 2 2 3 2 3 3 3 3 2 3 2 4 2 2 1 1 6 7 10 10 2 6 11 8 12 14 12 13 15 14 10 11 13 17 19 20 19 15 14 16 17 17 16 14 16 15 15 14 13
5 3 4 3 2 4 4 4 5 3 0 1 2 2 2 2 2 2 1 1 2 3 4 9 7 7 3 3 8 11 13 13 10 9 14 12 12 14 15 18 19 18 15 15 15 14 14 13 12 11 11 11 11 9
3 3 3 3 2 2 3 1 1 2 1 1 2 2 2 2 3 1 1 2 2 2 4 5 5 2 4 7 3 5 8 10 13 12 13 13 13 11 9 8 9 13 14 12 12 12 11 13 13 13 12 11 9 9
3 2 0 2 1 3 2 3 2 3 2 1 2 2 3 3 2 2 1 4 2 4 5 4 4 5 5 6 8 11 12 12 15 16 15 16 15 13 12 10 9 10 11 9 10 10 9 10 12 11 11 9 8 8
2 2 4 2 3 1 4 2 2 1 2 1 2 2 4 5 3 1 2 3 4 6 8 8 7 7 9 9 9 9 9 9 8 7 7 9 13 16 12 11 8 7 8 8 8 8 5 9 8 8 9 9 8 7
2 1 3 3 2 2 1 3 3 1 1 2 3 2 2 1 2 3 3 1 3 2 7 10 10 10 12 12 10 9 7 7 11 7 6 3 8 12 14 12 10 9 10 10 8 6 7 7 8 8 7 8 8 7
1 1 3 2 3 1 3 2 2 2 1 2 2 2 2 2 5 4 2 1 1 1 3 4 5 8 11 15 16 18 18 17 15 11 3 3 9 12 15 14 13 13 12 12 11 9 6 6 5 5 6 7 7 7
1 2 3 2 1 1 1 2 3 0 2 2 1 3 2 2 1 7 8 6 5 3 4 7 8 8 9 10 10 10 11 12 13 12 12 12 13 15 16 12 12 12 11 11 11 10 10 10 10 11 11 10 10 9
2 2 3 2 0 2 3 2 1 2 2 2 1 1 1 2 1 3 8 3 2 5 4 5 9 8 8 8 7 7 5 5 10 14 14 15 15 16 14 11 12 12 12 12 12 13 14 13 13 12 12 12 12 11
2 2 2 2 2 2 2 2 3 2 3 2 2 1 1 2 2 1 3 5 3 3 4 8 9 8 8 7 6 6 6 7 8 9 10 12 12 13 14 15 16 15 15 15 14 14 13 12 12 12 11 11 11 11
Wind_Direction
184 182 188 188 191 173 174 126 97 112 121 103 75 65 53 64 80 198 130 227 231 254 238 210 224 210 257 221 235 275 347 325 288 245 239 225 219 228 250 225 188 176 162 196 178 187 263 218 89 11 244 286 279 292
178 187 191 187 171 175 159 152 131 121 122 129 259 338 15 13 27 322 286 307 281 241 250 269 264 247 246 249 213 205 228 249 239 306 54 341 331 314 239 243 206 253 198 186 199 210 226 306 124 278 253 277 290 295
182 188 187 188 176 160 156 154 150 139 109 68 49 34 27 19 10 334 305 299 292 267 279 248 246 260 249 247 242 253 223 215 230 184 251 263 250 258 264 241 316 276 184 229 316 287 240 244 251 242 295 276 286 269
179 182 187 196 172 163 157 158 161 137 123 100 15 355 354 338 331 324 306 291 274 281 270 270 295 277 278 255 232 222 236 241 212 154 226 246 246 217 228 253 232 234 336 316 286 279 299 215 214 354 335 309 321 317
186 184 191 192 171 166 163 166 156 152 165 317 320 324 321 320 316 304 288 270 260 216 271 288 293 279 267 258 247 233 224 234 239 248 229 243 231 257 250 252 251 204 237 247 260 251 241 271 242 290 300 304 321 324
191 191 196 183 170 169 167 166 166 191 246 310 317 313 306 305 308 319 317 35 252 239 274 310 267 261 272 250 234 228 212 220 227 232 230 236 248 215 254 261 221 211 223 232 250 251 251 258 286 233 249 252 249 269
199 195 198 173 169 167 166 170 179 214 302 302 302 301 293 291 286 237 223 146 71 71 320 306 308 266 272 305 196 175 191 201 223 239 232 248 244 230 255 258 270 242 231 235 242 256 267 246 260 247 207 252 291 275
198 192 178 165 165 166 168 172 219 293 303 306 301 300 293 290 278 259 257 254 253 260 238 257 259 342 212 222 239 181 183 164 236 224 230 233 250 227 251 247 250 256 250 246 244 235 239 252 267 261 247 254 254 259
182 164 160 161 161 160 169 191 286 314 316 310 303 300 293 250 191 262 315 323 239 211 203 217 200 266 347 285 198 206 194 222 213 215 215 202 218 226 247 251 255 255 239 250 247 243 250 256 260 259 236 226 237 256
158 158 160 160 161 165 171 201 313 326 316 314 308 343 333 175 66 342 309 75 197 205 231 230 157 254 86 279 266 262 218 222 240 216 165 221 241 243 256 266 277 281 241 246 251 246 236 237 238 243 231 233 233 258
159 160 161 162 167 170 177 235 320 330 348 14 21 254 337 307 309 191 293 213 205 248 226 234 215 246 250 236 214 250 261 237 243 231 188 239 250 316 349 330 325 325 311 271 246 251 244 231 232 242 248 229 230 228
162 166 166 171 172 175 194 286 309 304 321 304 292 292 293 256 213 167 216 260 208 241 323 338 327 268 241 182 197 216 232 263 256 143 185 256 22 330 325 317 311 305 288 280 274 263 250 237 212 212 208 222 226 224
169 170 172 174 173 189 269 342 27 357 324 320 274 299 320 279 270 179 241 320 318 335 7 320 313 276 224 190 216 239 237 226 125 217 228 68 336 332 326 319 314 310 301 283 276 261 254 202 201 195 203 215 200 175
168 170 176 174 176 181 359 58 257 170 255 116 126 290 192 270 235 196 178 213 253 245 299 300 266 264 256 196 233 258 238 233 247 240 324 336 339 326 323 319 316 315 311 304 292 262 150 141 130 128 141 153 142 123
166 165 170 184 190 266 181 220 221 260 187 207 115 240 231 236 254 245 240 323 271 236 296 289 262 238 268 256 216 252 299 260 34 337 321 330 326 327 329 334 338 339 342 3 25 59 67 76 90 78 77 97 105 102
153 151 216 224 175 165 210 234 258 163 189 216 233 257 254 41 298 335 271 261 249 284 281 207 258 275 248 290 300 11 346 22 342 327 326 328 333 339 344 348 359 6 14 31 46 60 68 71 77 80 73 74 80 89
146 157 155 150 183 221 254 217 163 176 200 223 255 232 205 228 253 240 211 233 313 268 238 253 238 246 305 351 19 11 14 339 338 344 344 345 1 2 358 5 15 28 40 48 56 59 65 71 76 74 70 69 76 79
155 158 180 219 236 253 160 166 132 163 236 244 193 257 213 210 259 293 312 260 243 242 235 309 309 324 342 356 4 3 41 7 24 3 3 9 8 12 19 25 32 37 43 47 55 57 57 60 63 62 68 72 74 74
181 187 201 195 211 181 140 146 110 198 230 241 263 247 234 278 272 314 304 292 259 226 282 342 14 359 330 333 339 349 357 5 30 4 24 19 21 21 23 31 36 39 43 44 49 51 53 55 59 61 62 67 68 67
159 166 177 186 192 156 51 318 160 115 252 259 329 320 266 219 252 298 318 328 347 72 51 27 4 340 308 299 304 304 17 9 350 58 37 22 15 26 30 32 35 42 46 46 49 52 52 52 47 56 64 68 68 63
176 154 172 180 156 102 108 147 347 234 292 268 289 333 280 351 24 340 354 347 52 26 22 3 314 313 332 327 342 33 40 51 51 46 31 40 21 34 33 30 36 46 49 46 49 46 49 46 47 56 65 68 75 75
151 164 159 171 97 56 76 30 167 294 116 246 4 12 25 32 352 18 316 38 55 354 336 323 347 346 356 16 12 32 52 67 65 60 53 53 38 34 34 28 36 43 43 40 44 48 47 52 69 71 74 77 75 72
140 153 116 67 66 49 252 358 53 356 75 288 12 35 353 355 326 301 71 57 58 352 341 330 354 23 23 33 48 45 46 57 58 54 55 54 51 47 51 47 43 42 43 35 55 60 56 57 63 70 73 75 77 77
118 64 75 72 69 230 9 12 15 26 30 27 42 357 331 299 318 60 83 61 19 358 4 7 13 16 21 34 39 30 22 55 67 57 59 64 66 48 58 59 58 57 54 54 57 59 61 63 65 66 63 65 64 64
82 332 83 348 335 60 31 4 346 44 87 311 53 337 317 343 67 56 69 48 2 11 2 360 28 32 45 52 49 44 51 68 64 70 53 69 84 78 66 66 60 52 49 55 51 54 56 58 58 59 57 48 50 54
90 297 102 176 290 112 188 103 274 212 138 7 245 274 12 78 65 164 15 354 356 -0 358 359 347 23 48 35 38 28 32 70 91 77 56 61 62 67 62 50 34 36 34 38 38 38 38 34 34 34 35 34 32 29
109 249 343 3 62 106 68 36 41 101 93 177 278 18 57 72 228 248 23 23 356 355 349 359 27 69 93 80 73 78 87 92 87 90 84 69 58 50 48 43 22 9 2 13 21 15 10 13 13 15 19 25 23 22
146 154 153 241 72 23 127 79 106 173 244 229 84 54 145 181 200 337 18 14 80 82 68 72 89 98 104 106 102 98 94 96 96 84 69 55 48 42 38 29 16 356 353 360 3 347 354 352 354 353 359 5 5 360
84 56 98 51 56 52 128 151 201 250 12 106 125 175 203 56 340 332 5 83 151 101 77 83 88 105 105 102 95 81 73 93 104 72 55 9 3 14 17 17 19 15 10 9 10 356 349 358 350 337 345 345 344 343
258 38 92 77 93 189 248 178 227 262 114 110 115 84 74 48 11 22 2 311 273 128 92 68 109 123 109 99 86 73 68 69 67 63 79 359 355 2 7 12 17 16 15 13 12 15 15 8 1 351 351 349 347 341
61 74 74 56 111 242 241 302 288 264 70 69 44 108 150 175 95 35 34 40 62 99 117 113 108 113 119 108 94 88 71 62 59 50 37 26 19 13 10 12 10 11 12 11 11 14 18 18 12 5 1 360 359 351
31 81 122 108 253 320 24 45 19 72 10 66 27 70 56 65 69 14 9 23 91 103 114 147 136 128 128 119 109 99 87 79 57 44 31 25 18 8 8 12 12 12 11 13 16 15 11 9 8 6 2 359 356 355
67 64 46 82 51 23 359 44 30 26 31 49 22 72 105 104 163 342 3 28 71 133 143 146 138 131 123 115 104 88 69 54 54 53 32 30 27 20 19 20 10 9 10 12 11 7 6 5 6 3 0 356 351 346
Height
820 823 826 829 831 834 836 839 840 841 842 843 845 845 844 844 844 846 845 847 848 846 842 840 841 843 843 840 840 836 838 831 829 823 813 806 805 803 798 793 798 798 807 807 807 808 797 754 752 748 753 749 746 744
817 823 825 826 829 831 835 837 839 840 842 843 845 844 842 844 845 845 846 846 844 845 840 837 834 834 836 834 838 835 829 830 827 823 818 818 810 806 804 791 789 793 780 786 784 769 755 753 752 751 753 752 747 743
815 820 823 823 828 829 833 835 837 839 841 843 843 844 843 843 843 846 845 844 843 840 833 830 824 823 826 826 831 834 828 824 823 823 826 823 818 807 798 798 790 778 779 779 772 752 757 755 751 752 751 748 745 742
812 815 820 824 828 829 832 835 837 838 839 840 843 843 841 842 842 844 842 842 842 840 832 824 818 818 818 816 815 816 815 819 817 820 820 818 813 806 805 792 790 784 784 782 775 764 753 748 749 748 748 746 743 740
809 812 818 822 826 829 831 833 836 837 839 840 840 839 839 839 841 841 840 836 837 840 832 820 819 813 809 808 806 806 811 814 816 817 813 811 807 805 797 795 773 780 774 770 755 759 759 750 746 746 746 744 742 741
807 810 815 819 824 827 829 831 834 836 836 837 837 836 836 837 838 838 836 832 829 832 834 827 810 800 797 797 799 801 804 809 811 808 806 800 796 801 795 771 759 760 760 756 749 748 746 744 743 741 741 739 736 737
805 808 814 818 823 825 827 830 831 832 833 834 834 834 833 833 835 837 835 831 830 833 834 829 822 795 794 794 793 796 798 800 802 802 795 791 789 787 776 753 755 746 743 745 743 742 742 744 736 734 734 735 734 734
803 807 812 817 820 823 827 828 829 830 831 831 831 829 829 828 827 826 824 827 829 832 832 830 822 810 792 794 797 792 794 796 797 790 782 778 779 779 761 741 724 730 736 737 732 732 731 730 731 731 732 732 732 732
802 807 812 815 817 820 825 827 828 828 828 828 826 823 821 820 822 820 819 820 823 828 828 823 822 824 793 792 791 790 788 785 779 773 768 769 758 746 729 724 718 719 724 719 723 724 724 725 723 724 725 726 728 724
801 806 810 813 815 820 823 824 827 827 827 824 822 820 822 819 818 819 814 817 818 816 810 810 811 808 798 796 792 787 779 774 769 754 755 752 735 722 715 713 711 715 715 715 717 715 714 716 718 718 718 717 718 716
801 806 809 811 815 819 820 822 824 825 824 822 823 823 818 820 819 818 826 819 818 813 802 798 796 794 788 790 788 785 776 757 754 750 748 747 730 724 729 726 722 719 714 707 704 699 699 702 705 708 708 710 710 711
799 806 808 811 815 817 818 820 821 822 821 822 824 822 820 819 819 820 822 815 802 798 794 791 793 788 783 782 782 779 773 762 747 745 745 734 731 733 729 723 718 714 710 704 701 692 687 691 695 699 701 703 703 703
800 805 808 811 812 815 816 816 817 819 820 822 824 822 820 823 823 826 819 805 802 799 797 797 794 786 776 777 773 765 746 739 738 729 723 734 735 733 729 721 713 707 702 696 690 686 680 682 687 692 695 697 698 701
799 803 806 808 809 811 812 815 818 820 821 825 832 834 822 831 818 811 811 805 801 801 799 797 792 783 766 763 757 742 735 733 723 721 728 741 740 735 729 722 715 707 699 692 685 678 676 680 686 689 691 695 698 702
799 800 803 804 806 810 814 815 816 818 819 826 827 831 827 810 809 807 808 806 803 801 801 795 789 779 765 746 739 738 739 732 745 748 747 748 744 738 730 723 715 709 702 694 688 684 685 688 689 694 697 699 703 705
797 798 800 803 807 810 812 813 814 816 817 818 815 811 810 816 815 811 810 810 800 799 797 794 787 775 753 742 735 746 744 754 757 758 757 753 747 740 734 728 721 715 710 704 699 696 695 697 699 703 705 710 711 713
796 799 802 804 806 808 809 810 812 814 814 812 814 806 806 806 804 804 801 799 798 798 793 785 776 759 757 752 758 763 765 766 766 763 761 756 751 746 740 734 729 724 718 714 710 708 708 709 710 712 715 719 720 724
796 798 801 802 803 804 806 808 809 812 807 812 808 806 800 799 798 797 797 796 796 792 785 777 777 771 767 766 762 768 770 770 768 767 765 761 757 753 748 743 738 733 729 725 722 721 719 718 720 725 729 731 733 737
794 796 798 800 801 802 803 808 808 815 808 805 801 799 798 797 796 796 795 793 790 789 788 785 785 790 783 780 775 772 772 771 770 770 768 766 763 760 755 751 747 743 740 738 735 735 735 735 737 739 741 743 746 749
793 795 796 798 799 800 807 809 808 812 813 805 800 801 799 798 796 795 793 790 784 786 792 794 795 795 792 789 785 777 774 773 772 771 772 772 770 766 764 761 758 755 752 749 749 749 749 750 751 753 754 755 756 759
791 793 795 796 797 799 803 807 810 806 805 807 806 802 801 798 797 798 795 792 792 798 798 800 798 796 792 789 785 780 779 777 777 777 778 778 777 774 772 770 767 764 762 762 762 763 761 763 765 765 764 765 767 768
790 792 794 795 797 800 805 808 809 808 811 810 809 808 809 804 800 799 799 799 804 805 804 801 799 796 794 791 789 786 785 783 782 783 783 783 783 781 780 780 777 776 775 775 774 774 774 774 773 773 773 774 775 775
790 792 793 795 801 807 811 808 810 815 810 814 816 812 812 811 803 801 802 805 807 808 806 803 801 800 798 796 793 790 789 789 789 790 791 791 791 790 788 786 785 785 785 785 783 782 782 782 781 780 781 781 782 782
790 792 801 807 813 811 815 821 820 821 822 822 825 814 814 813 808 803 805 808 810 809 807 805 803 801 800 798 798 799 798 797 797 797 797 797 796 797 795 794 793 793 793 793 791 790 789 788 788 787 787 787 787 787
796 804 809 816 822 818 826 825 828 822 824 835 825 820 818 818 815 813 806 811 811 812 811 809 808 807 806 806 806 806 805 803 804 804 804 803 802 801 801 800 800 800 800 798 798 797 796 795 794 793 792 792 791 791
809 813 812 814 819 815 824 818 827 826 833 827 828 826 829 824 822 824 814 816 815 816 815 814 812 811 811 812 811 811 810 809 808 807 809 808 807 806 806 806 805 805 804 803 801 800 799 798 796 795 793 793 793 792
812 813 809 805 805 811 815 817 819 826 832 825 828 829 833 831 831 822 819 819 818 818 817 816 815 814 815 815 815 814 813 813 812 812 813 812 811 811 810 808 808 808 806 804 803 802 801 800 798 797 796 795 794 793
808 809 812 815 816 817 822 828 831 828 827 817 820 834 834 828 824 823 821 821 820 820 818 817 816 816 816 817 817 817 817 817 817 816 816 815 815 814 813 811 810 809 807 805 804 802 802 801 799 798 797 795 794 793
808 806 809 821 817 817 823 825 823 816 813 818 825 827 826 823 823 822 822 821 822 822 821 821 821 821 820 821 821 820 819 817 816 817 820 820 818 817 815 813 811 809 807 805 803 802 802 801 799 797 796 795 794 793
810 810 815 820 818 820 822 818 818 815 814 815 817 820 822 824 824 822 821 821 821 821 821 821 821 821 821 820 820 820 819 820 820 822 822 822 820 818 815 812 810 808 806 805 804 802 801 799 798 797 795 794 793 792
809 812 817 817 815 818 817 816 815 814 815 817 818 822 824 824 824 824 822 822 821 821 821 821 821 822 823 823 823 824 825 826 825 825 824 822 820 818 815 813 811 810 808 807 805 803 801 799 797 795 794 793 792 790
811 819 817 819 816 817 815 817 818 818 818 819 821 822 824 824 827 827 825 824 824 823 824 824 824 825 826 827 827 827 828 828 827 826 824 823 820 818 816 814 812 811 809 806 803 800 798 797 796 795 793 792 791 790
821 822 823 822 819 819 820 819 820 821 822 822 822 822 824 824 829 830 828 827 827 826 826 826 827 828 828 829 829 829 828 828 827 827 827 825 823 820 816 814 811 808 806 803 802 801 800 799 797 796 794 793 791 790